Wind_Speed
23 35 47 54 58 63 69 77 77 82 90 94 100 98 106 107 108 113 120 123 104 107 108 102 101 101 102 100 95 97 93 92 87 83 80 66 68 64 53 54 55 56 59 61
28 37 40 47 54 59 65 75 80 84 88 89 93 101 101 99 103 105 114 121 121 103 104 106 108 103 98 96 99 98 99 97 95 95 90 85 85 80 73 68 66 65 64 66
28 36 43 48 54 59 65 73 77 83 87 91 94 90 92 96 99 103 102 113 121 119 103 105 104 105 102 100 97 100 100 101 97 90 91 87 88 87 81 77 74 72 68 70
22 33 42 48 53 60 65 70 77 82 85 88 89 88 89 92 96 100 106 106 112 116 121 109 99 102 104 105 102 97 93 95 95 95 97 95 91 86 82 74 71 68 70 71
22 30 39 48 51 57 63 71 75 79 82 88 88 91 91 91 94 95 94 97 104 109 116 123 120 101 100 100 103 105 103 98 88 88 85 87 88 88 92 91 82 84 83 80
17 26 32 45 51 56 61 67 71 75 82 88 88 92 88 87 92 91 91 95 98 104 110 119 120 123 116 102 103 101 102 102 98 97 76 82 85 83 87 87 88 84 87 88
20 22 32 38 45 52 58 65 71 75 82 85 86 84 81 83 86 85 87 90 95 99 99 108 121 123 125 123 110 104 106 104 100 103 100 98 90 86 90 92 92 94 92 87
17 21 29 37 43 47 51 59 67 70 72 76 79 81 82 84 82 82 84 87 86 90 94 98 103 106 112 118 119 113 110 108 109 106 102 108 109 103 101 100 102 99 98 98
7 17 26 33 40 46 50 55 61 66 67 70 72 76 76 79 80 81 82 82 83 84 85 90 93 95 98 105 111 117 116 114 112 115 110 107 111 116 118 115 115 112 112 113
10 5 14 25 36 43 48 51 57 60 63 66 69 72 74 77 79 77 76 78 76 75 77 79 83 89 95 98 104 109 110 114 114 112 114 117 120 117 116 115 116 118 119 119
16 11 7 16 29 35 39 46 50 53 55 58 63 68 72 75 76 76 76 76 74 74 74 77 81 87 92 95 96 102 107 107 108 110 111 112 114 115 114 114 114 116 115 114
20 13 5 6 16 27 34 39 44 47 49 52 56 62 67 70 71 74 74 75 75 74 75 77 80 86 90 90 91 94 97 101 102 103 107 109 108 108 112 115 113 115 113 114
30 20 12 4 4 12 22 31 38 43 47 51 55 60 65 70 72 75 77 76 76 76 76 77 79 82 85 88 88 89 90 93 96 97 100 105 110 107 110 109 113 116 113 114
40 30 21 11 4 6 12 21 31 39 45 51 54 61 65 69 72 71 73 74 75 76 77 80 82 83 84 85 86 87 88 90 92 93 96 100 104 104 105 107 110 114 117 119
48 43 35 22 15 8 10 15 22 31 38 45 55 57 64 68 69 70 70 69 71 74 77 80 83 83 81 81 83 85 88 89 91 92 93 97 99 99 101 104 107 111 112 114
47 42 38 33 24 17 13 12 20 27 30 38 43 55 60 63 65 68 70 71 73 75 77 77 77 78 79 81 82 82 84 87 89 91 93 94 97 98 100 102 104 106 107 107
54 49 44 39 31 28 25 19 19 22 27 36 41 51 50 55 61 66 70 72 72 72 74 76 76 77 79 81 81 82 81 81 85 90 93 95 96 97 99 100 101 102 102 103
57 53 50 50 44 36 28 26 24 23 25 29 37 47 50 52 55 60 64 66 68 71 74 74 74 75 76 78 77 79 80 81 82 83 85 89 93 96 99 100 101 102 102 103
61 62 59 55 46 37 36 40 29 25 24 28 34 42 48 49 53 56 59 61 60 61 62 65 68 70 72 73 74 77 77 77 78 81 83 84 85 87 88 90 92 94 93 93
55 62 62 64 63 65 50 46 37 35 33 26 30 37 45 51 52 57 57 58 59 59 59 60 60 60 61 63 64 67 70 73 74 74 77 78 81 82 82 82 83 85 85 86
52 58 61 62 62 65 67 60 60 50 40 33 29 31 38 47 52 56 58 59 60 60 60 60 60 61 62 62 63 65 67 67 70 71 74 76 77 77 77 77 80 83 83 83
57 59 60 61 67 70 68 75 65 59 52 45 38 35 35 41 48 55 59 59 60 61 60 59 60 60 60 59 60 63 64 65 66 69 71 72 73 74 74 76 77 79 78 79
62 61 65 68 66 78 84 85 83 69 60 51 47 40 36 40 44 49 56 60 61 61 62 62 60 59 58 57 56 57 59 62 64 64 65 65 67 68 68 69 71 72 74 74
64 66 70 72 76 74 86 88 94 81 69 58 49 39 44 37 42 46 48 55 59 60 60 61 61 59 58 56 54 54 55 55 55 57 58 59 60 62 63 65 67 67 66 66
65 66 73 76 82 86 94 95 99 97 84 73 61 49 38 42 40 42 46 48 53 57 58 58 60 60 59 57 56 54 52 51 51 51 52 52 52 53 54 56 57 58 58 58
67 72 75 75 83 86 93 98 97 102 90 82 76 62 47 38 38 38 41 43 46 50 55 57 59 60 60 59 57 55 52 50 49 50 50 50 49 49 49 50 50 50 50 50
Wind_Direction
197 193 197 201 202 201 200 206 206 210 213 214 213 211 214 209 210 212 216 217 222 227 225 224 225 226 229 232 234 236 237 238 240 242 244 241 245 247 250 256 255 256 260 262
194 192 193 196 198 199 200 203 204 208 211 213 215 215 215 214 213 212 216 217 216 221 228 225 226 225 224 227 233 236 241 241 242 242 244 244 248 252 256 258 257 257 259 261
197 188 188 190 193 198 199 203 204 207 208 213 215 218 218 218 217 215 216 219 219 218 222 232 228 227 228 227 228 234 239 243 245 243 245 245 247 249 254 257 256 254 257 261
196 188 181 185 193 196 200 201 203 207 212 213 215 219 218 219 219 217 216 219 219 222 221 222 232 231 232 231 233 232 235 238 243 247 247 250 249 250 252 254 253 254 253 255
180 184 185 186 193 195 201 203 205 207 209 213 216 218 218 220 222 219 218 219 222 223 225 224 224 230 237 236 238 239 240 242 243 245 246 249 249 250 252 251 253 258 256 257
159 173 181 185 193 197 202 205 205 206 209 215 217 220 220 219 224 223 221 219 221 223 225 226 227 229 231 239 241 239 240 241 243 244 243 247 248 248 250 255 255 255 255 257
145 167 181 188 197 202 203 203 208 209 210 213 220 223 225 223 225 226 227 225 222 223 226 228 229 230 232 237 236 242 244 244 242 243 244 245 246 248 251 251 253 254 254 256
138 166 182 190 198 201 206 209 213 214 215 216 219 222 224 228 228 229 229 231 232 228 226 228 230 233 235 236 238 239 239 245 247 245 243 244 246 245 249 251 252 253 256 259
137 177 183 193 196 205 205 209 216 217 220 222 222 225 227 230 233 234 234 234 233 233 231 228 229 233 236 238 240 239 239 241 244 246 247 246 247 248 252 255 255 255 256 260
74 184 204 203 201 208 207 213 217 218 220 223 228 231 232 234 238 240 240 240 240 238 236 235 234 235 236 236 239 240 240 241 243 245 247 249 250 251 252 252 254 255 257 259
60 91 188 220 212 217 219 216 221 226 224 224 227 230 234 236 238 241 242 243 244 244 243 240 239 237 237 236 238 240 241 242 243 245 246 248 250 252 253 253 253 254 256 257
41 46 75 180 218 220 224 225 225 228 228 229 231 230 234 237 239 241 244 245 244 244 243 242 240 239 238 237 238 239 242 242 243 245 246 247 249 251 254 255 256 256 257 257
38 42 41 33 232 227 229 227 229 230 230 227 230 234 236 237 237 238 239 242 244 244 245 247 246 244 242 240 239 240 241 244 244 245 246 247 248 251 254 256 256 258 259 260
31 33 27 27 355 256 236 231 233 232 232 233 233 235 237 239 240 240 241 242 243 244 246 247 247 247 246 244 243 243 243 244 245 246 247 247 248 251 254 254 255 258 259 260
26 22 22 21 7 339 283 252 241 237 239 237 237 238 240 241 243 245 246 246 247 247 246 246 247 248 249 249 248 245 245 245 245 246 248 249 249 251 252 253 254 256 259 260
31 30 24 19 11 2 333 299 277 260 246 245 243 244 244 245 246 247 247 247 247 248 249 249 250 250 250 249 250 249 247 246 247 248 249 249 251 252 253 254 256 257 259 260
32 32 30 29 20 8 357 337 298 271 264 259 252 249 247 246 248 249 249 249 249 249 251 253 253 253 253 253 252 251 251 250 249 249 249 251 252 253 254 255 257 258 260 261
31 27 27 25 25 21 3 349 336 307 279 263 261 261 257 250 246 246 248 251 252 252 252 252 253 254 254 254 254 254 253 252 252 251 251 252 253 254 256 257 259 260 262 263
29 29 24 21 16 10 12 12 353 331 314 288 267 261 262 258 255 252 248 246 247 248 251 254 254 255 255 256 256 256 255 254 254 254 254 253 254 255 256 258 259 260 261 262
25 25 24 20 16 17 9 2 356 354 340 314 285 267 260 259 258 256 254 253 249 246 246 249 251 254 255 255 256 255 254 255 256 256 256 255 255 255 255 256 258 259 260 261
23 25 21 19 16 12 11 6 5 357 348 331 311 285 271 263 258 256 257 254 253 251 250 249 247 247 249 251 253 253 251 251 252 254 254 255 255 256 257 258 259 259 260 261
15 19 19 16 15 13 7 5 1 358 351 343 327 308 284 266 258 255 256 256 255 254 253 251 250 250 249 247 249 253 255 254 252 252 254 255 256 257 258 259 259 260 261 261
10 12 14 17 15 14 11 4 2 358 354 348 334 317 299 280 267 259 253 253 255 254 252 252 251 251 251 249 249 251 253 254 255 255 255 256 257 259 259 259 260 261 262 263
6 5 10 9 10 9 9 5 0 356 354 348 338 321 307 295 278 267 256 254 251 252 253 251 251 251 251 251 251 251 251 251 253 254 255 257 258 259 259 259 260 262 264 265
2 2 4 6 7 6 6 5 1 356 354 351 343 330 310 299 288 275 265 255 253 250 251 252 251 250 250 251 251 251 251 251 253 254 255 255 256 257 258 259 260 261 263 265
359 360 2 5 5 5 3 2 359 357 353 350 345 334 319 304 292 282 269 261 253 251 250 249 250 249 248 249 250 252 252 252 252 254 255 256 257 258 259 260 261 261 263 264
Height
10395 10401 10411 10422 10434 10450 10465 10479 10495 10512 10523 10536 10550 10568 10576 10595 10614 10629 10644 10659 10670 10687 10702 10716 10724 10733 10741 10747 10752 10753 10760 10763 10772 10774 10779 10788 10787 10792 10797 10800 10801 10804 10803 10802
10390 10395 10405 10419 10435 10448 10459 10472 10485 10497 10513 10530 10542 10554 10569 10589 10603 10620 10629 10642 10659 10671 10682 10697 10706 10715 10722 10728 10734 10739 10743 10754 10758 10764 10769 10775 10775 10781 10786 10790 10791 10790 10789 10790
10388 10396 10405 10418 10433 10444 10455 10468 10484 10493 10503 10520 10533 10551 10566 10577 10591 10608 10625 10633 10647 10663 10672 10676 10691 10701 10711 10720 10725 10728 10731 10740 10742 10751 10754 10760 10767 10771 10772 10775 10778 10779 10776 10775
10392 10397 10407 10419 10430 10441 10455 10470 10478 10489 10502 10513 10527 10540 10554 10567 10577 10593 10608 10619 10636 10651 10660 10669 10672 10686 10695 10702 10710 10717 10721 10727 10729 10740 10744 10748 10756 10759 10762 10764 10763 10762 10757 10758
10397 10403 10409 10420 10431 10444 10454 10464 10476 10486 10498 10504 10515 10527 10540 10555 10565 10582 10601 10614 10624 10634 10646 10656 10665 10668 10674 10688 10696 10705 10714 10719 10723 10727 10734 10738 10742 10743 10744 10748 10749 10748 10744 10742
10403 10409 10417 10425 10433 10442 10451 10463 10474 10484 10493 10499 10510 10518 10532 10547 10553 10568 10583 10596 10607 10616 10628 10638 10647 10657 10666 10668 10675 10685 10691 10699 10704 10713 10722 10724 10727 10728 10731 10730 10733 10732 10730 10729
10408 10414 10420 10429 10437 10444 10454 10463 10469 10477 10485 10497 10505 10518 10529 10539 10550 10561 10571 10581 10592 10601 10612 10621 10630 10641 10649 10656 10661 10664 10669 10678 10687 10694 10706 10706 10708 10712 10711 10713 10712 10713 10712 10715
10415 10419 10424 10430 10437 10446 10455 10464 10469 10477 10488 10497 10506 10513 10522 10528 10539 10549 10558 10568 10579 10589 10599 10607 10617 10626 10631 10636 10642 10649 10653 10656 10663 10674 10681 10684 10686 10688 10687 10689 10691 10694 10696 10699
10421 10421 10425 10432 10438 10443 10452 10461 10468 10477 10486 10493 10503 10509 10518 10524 10531 10538 10546 10554 10563 10575 10585 10594 10601 10606 10612 10617 10619 10625 10634 10640 10645 10649 10656 10662 10666 10669 10670 10674 10674 10678 10681 10680
10429 10429 10431 10434 10439 10443 10451 10458 10464 10473 10482 10492 10498 10505 10513 10518 10521 10526 10535 10543 10551 10560 10570 10578 10582 10585 10588 10593 10597 10603 10611 10619 10625 10630 10636 10640 10643 10649 10650 10654 10655 10654 10658 10659
10433 10434 10436 10438 10442 10445 10450 10456 10461 10467 10475 10484 10492 10498 10501 10505 10511 10517 10523 10529 10537 10543 10549 10553 10556 10561 10567 10573 10578 10582 10588 10596 10603 10608 10613 10618 10622 10625 10627 10629 10633 10634 10637 10639
10440 10440 10440 10439 10440 10444 10447 10452 10458 10462 10468 10475 10481 10486 10487 10491 10498 10502 10506 10511 10517 10524 10528 10531 10534 10538 10544 10551 10557 10561 10565 10573 10580 10586 10592 10595 10599 10602 10604 10603 10609 10611 10616 10617
10442 10439 10440 10443 10445 10446 10447 10448 10451 10455 10460 10466 10471 10473 10473 10476 10479 10483 10489 10497 10503 10507 10510 10513 10514 10515 10520 10528 10537 10543 10548 10552 10557 10565 10570 10572 10573 10579 10577 10583 10585 10585 10589 10591
10445 10444 10441 10440 10441 10442 10444 10446 10448 10449 10450 10451 10456 10457 10459 10461 10464 10471 10475 10480 10484 10488 10492 10494 10495 10497 10502 10511 10519 10526 10530 10533 10537 10541 10545 10549 10553 10557 10559 10560 10563 10564 10567 10569
10448 10446 10445 10443 10441 10439 10440 10440 10441 10440 10444 10447 10443 10448 10446 10447 10452 10458 10463 10469 10472 10474 10475 10476 10478 10483 10489 10494 10500 10505 10509 10513 10516 10520 10524 10526 10531 10534 10536 10539 10541 10542 10546 10549
10455 10452 10446 10443 10441 10439 10436 10434 10433 10432 10434 10433 10436 10435 10434 10439 10443 10445 10447 10450 10452 10455 10456 10461 10465 10468 10469 10471 10476 10482 10489 10495 10499 10500 10503 10506 10509 10513 10514 10516 10519 10522 10524 10526
10461 10456 10451 10446 10440 10435 10432 10429 10426 10423 10422 10423 10423 10416 10421 10424 10427 10428 10429 10430 10434 10439 10441 10441 10445 10448 10451 10452 10458 10461 10468 10474 10475 10479 10482 10484 10487 10490 10493 10495 10498 10500 10503 10504
10464 10460 10454 10448 10442 10437 10431 10426 10419 10413 10412 10411 10408 10405 10406 10409 10409 10409 10410 10414 10417 10418 10420 10423 10426 10428 10430 10433 10438 10441 10446 10450 10453 10456 10460 10463 10467 10469 10472 10475 10477 10479 10482 10483
10465 10460 10454 10448 10442 10437 10429 10421 10412 10406 10402 10397 10395 10390 10387 10391 10393 10392 10394 10395 10397 10399 10400 10402 10405 10407 10409 10412 10415 10419 10423 10427 10432 10435 10438 10441 10445 10447 10450 10453 10454 10454 10457 10458
10468 10460 10452 10445 10437 10429 10423 10416 10409 10400 10392 10386 10380 10376 10371 10369 10370 10370 10374 10376 10378 10380 10382 10383 10386 10389 10391 10391 10393 10396 10399 10404 10409 10411 10414 10419 10420 10422 10427 10429 10430 10430 10434 10435
10469 10461 10453 10447 10439 10428 10419 10410 10399 10390 10383 10373 10367 10362 10357 10353 10351 10349 10350 10353 10356 10359 10361 10363 10365 10369 10371 10373 10373 10374 10377 10382 10385 10389 10391 10394 10397 10400 10405 10408 10408 10408 10411 10413
10469 10461 10453 10445 10435 10423 10414 10402 10391 10384 10371 10361 10353 10346 10341 10336 10332 10331 10330 10331 10335 10338 10341 10345 10346 10348 10351 10355 10356 10357 10360 10362 10366 10369 10371 10374 10377 10380 10384 10386 10386 10388 10390 10391
10466 10457 10448 10438 10429 10417 10406 10393 10383 10371 10360 10350 10339 10332 10324 10317 10313 10312 10311 10311 10313 10317 10322 10325 10329 10331 10333 10336 10339 10341 10343 10345 10347 10350 10352 10355 10357 10360 10363 10364 10365 10367 10369 10371
10462 10452 10442 10431 10422 10413 10401 10388 10374 10361 10351 10339 10329 10320 10307 10303 10296 10292 10292 10293 10294 10297 10302 10307 10311 10314 10316 10319 10322 10324 10326 10329 10331 10333 10335 10337 10339 10341 10343 10345 10346 10348 10350 10352
10458 10448 10437 10424 10411 10397 10388 10373 10359 10342 10330 10322 10312 10304 10295 10286 10280 10276 10274 10273 10276 10279 10283 10288 10293 10297 10299 10302 10304 10307 10310 10313 10315 10317 10319 10322 10324 10325 10327 10328 10329 10331 10333 10335
10453 10443 10433 10420 10409 10395 10384 10372 10358 10340 10325 10311 10300 10288 10277 10272 10265 10261 10259 10258 10259 10262 10266 10269 10274 10278 10282 10285 10288 10291 10293 10296 10299 10302 10304 10306 10308 10310 10312 10313 10315 10316 10318 10319